Hourly Weather Roundup
Issued by NWS Central Illinois

Home | Current Version | Previous Version | Text Only | Print | Product List | Glossary On
Versions: 1 2 3 4 5 6 7 8 9 10 11 12 13 14 15 16 17 18 19 20 21 22 23 24 25 26 27 28 29 30 31 32 33 34 35 36 37 38 39 40 41 42 43 44 45 46 47 48 49 50
000
NZUS43 KILX 200510
HWRILX

AREA WEATHER ROUNDUP
NATIONAL WEATHER SERVICE, LINCOLN IL
1100 PM CST FRI DEC 19 2014


CITY           SKY/WX    TMP DP  RH WIND       PRES   REMARKS
BLOOMINGTON    MOCLDY    25  23  91 CALM      30.27R
CHAMPAIGN      MOCLDY    25  22  88 E5        30.27R FOG     WCI  19
DECATUR        CLOUDY    29  26  89 CALM      30.28R
FLORA          CLOUDY    32  27  82 CALM      30.29S
GALESBURG      CLOUDY    29  25  84 SE3       30.26S
JACKSONVILLE   CLOUDY    34  29  82 SE3       30.27S
LACON          MOCLDY    23  21  91 CALM      30.27S
LAWRENCEVILLE  CLOUDY    31  26  82 CALM      30.29R
LITCHFIELD     CLOUDY    31  23  71 E3        30.27S
$$


CITY           SKY/WX    TMP DP  RH WIND       PRES   REMARKS
LINCOLN        CLOUDY    31  27  86 CALM      30.29S
MACOMB         CLOUDY    30  26  84 SE3       30.28S
MATTOON        MOCLDY    28  23  81 CALM      30.26S
MT CARMEL AP   CLOUDY    34  28  80 CALM      30.29R
OLNEY-NOBLE AP CLOUDY    32  27  80 CALM      30.29R
PARIS          CLOUDY    31  28  88 CALM      30.28S
PEORIA         PTCLDY    27  21  78 CALM      30.28S
PONTIAC        MOCLDY    24  22  93 CALM      30.28S
RANTOUL        MOCLDY    28  27  93 CALM      30.27S FOG
ROBINSON       CLOUDY    32  27  82 CALM      30.30S
SPRINGFIELD    CLOUDY    31  24  75 E3        30.28R
TAYLORVILLE    CLOUDY    32  27  80 CALM      30.28R
$$

...REGIONAL REPORTS...


CITY           SKY/WX    TMP DP  RH WIND       PRES   REMARKS
CHICAGO O`HARE CLOUDY    29  22  75 CALM      30.25F
KANKAKEE       CLOUDY    30  27  89 CALM      30.28S
MOLINE         CLOUDY    29  23  78 E3        30.27R
MOUNT VERNON   CLOUDY    34  25  69 CALM      30.29R
PITTSFIELD     CLOUDY    33  28  83 E3        30.27S
QUINCY         CLOUDY    31  27  85 SE6       30.26R WCI  25
ROCKFORD       MOCLDY    26  21  81 CALM      30.28S
$$


CITY           SKY/WX    TMP DP  RH WIND       PRES   REMARKS
BURLINGTON     CLOUDY    31  25  78 S6        30.26R WCI  25
CEDAR RAPIDS   CLOUDY    29  23  78 SE6       30.23S WCI  23
DES MOINES     FRZ DRZL  32  30  92 S6        30.20R FOG     WCI  26
KIRKSVILLE     CLOUDY    32  30  92 SE8       30.22F FOG     WCI  25
OTTUMWA        CLOUDY    30  25  81 S9        30.22F WCI  22
ST LOUIS       CLOUDY    36  28  73 E7        30.27S WCI  30
$$


CITY           SKY/WX    TMP DP  RH WIND       PRES   REMARKS
TERRE HAUTE    CLOUDY    31  26  82 CALM      30.28R
EVANSVILLE     CLOUDY    33  24  69 E6        30.29R WCI  28
INDIANAPOLIS   CLOUDY    29  23  78 E7        30.25F WCI  22
LAFAYETTE      CLOUDY    28  26  92 CALM      30.28R
MADISON        CLOUDY    26  21  81 CALM      30.25S
MILWAUKEE      CLOUDY    28  19  69 CALM      30.26S
$$





USA.gov is the U.S. government's official web portal to all federal, state and local government web resources and services.